Time,TemperatureF,DewpointF,PressureIn,WindDirection,WindDirectionDegrees,WindSpeedMPH,WindSpeedGustMPH,Humidity,HourlyPrecipIn,Conditions,Clouds,dailyrainin,SoftwareType,DateUTC
2013-01-20 00:02:00,38.0,36.0,30.37,NW,319,0.0,0.0,91,-99.99,,,-99.99,,2013-01-20 08:02:00,
2013-01-20 00:12:00,38.0,36.0,30.37,NW,319,0.0,0.0,91,-99.99,,,-99.99,,2013-01-20 08:12:00,
2013-01-20 00:22:00,38.0,36.0,30.37,NW,319,0.0,0.0,91,-99.99,,,-99.99,,2013-01-20 08:22:00,
2013-01-20 00:32:00,38.0,36.0,30.37,NW,319,0.0,1.0,91,0.00,,,0.00,,2013-01-20 08:32:00,
2013-01-20 00:42:00,38.0,36.0,30.37,NW,319,0.0,1.0,91,0.00,,,0.00,,2013-01-20 08:42:00,
2013-01-20 00:52:00,38.0,36.0,30.37,NW,319,0.0,1.0,91,0.00,,,0.00,,2013-01-20 08:52:00,
2013-01-20 01:02:00,37.0,34.0,30.36,NW,319,0.0,1.0,90,0.00,,,0.00,,2013-01-20 09:02:00,
2013-01-20 01:12:00,37.0,34.0,30.36,NW,319,0.0,1.0,90,0.00,,,0.00,,2013-01-20 09:12:00,
2013-01-20 01:22:00,37.0,34.0,30.36,NW,319,0.0,1.0,90,0.00,,,0.00,,2013-01-20 09:22:00,
2013-01-20 01:33:00,37.0,34.0,30.36,NW,319,0.0,1.0,90,0.00,,,0.00,,2013-01-20 09:33:00,
2013-01-20 01:42:00,37.0,34.0,30.36,NW,319,0.0,1.0,90,0.00,,,0.00,,2013-01-20 09:42:00,
2013-01-20 01:52:00,37.0,34.0,30.36,NW,319,0.0,1.0,90,0.00,,,0.00,,2013-01-20 09:52:00,
2013-01-20 02:02:00,37.0,34.0,30.36,NW,319,0.0,0.0,90,0.00,,,0.00,,2013-01-20 10:02:00,
2013-01-20 02:12:00,37.0,34.0,30.36,NW,319,0.0,0.0,90,0.00,,,0.00,,2013-01-20 10:12:00,
2013-01-20 02:22:00,36.0,33.0,30.36,NW,319,0.0,0.0,90,0.00,,,0.00,,2013-01-20 10:22:00,
2013-01-20 02:32:00,36.0,33.0,30.36,NW,319,0.0,0.0,90,0.00,,,0.00,,2013-01-20 10:32:00,
2013-01-20 02:42:00,36.0,33.0,30.36,NW,319,0.0,0.0,90,0.00,,,0.00,,2013-01-20 10:42:00,
2013-01-20 02:52:00,36.0,33.0,30.36,NW,319,0.0,0.0,90,0.00,,,0.00,,2013-01-20 10:52:00,
2013-01-20 03:02:00,36.0,33.0,30.37,NW,319,0.0,0.0,90,0.00,,,0.00,,2013-01-20 11:02:00,
2013-01-20 03:12:00,36.0,33.0,30.37,NW,319,0.0,0.0,90,0.00,,,0.00,,2013-01-20 11:12:00,
2013-01-20 03:22:00,36.0,33.0,30.37,NW,319,0.0,0.0,90,0.00,,,0.00,,2013-01-20 11:22:00,
2013-01-20 03:32:00,35.0,32.0,30.36,NW,319,0.0,0.0,89,0.00,,,0.00,,2013-01-20 11:32:00,
2013-01-20 03:43:00,35.0,32.0,30.36,NW,319,0.0,0.0,89,0.00,,,0.00,,2013-01-20 11:43:00,
2013-01-20 03:53:00,35.0,32.0,30.36,NW,319,0.0,0.0,89,0.00,,,0.00,,2013-01-20 11:53:00,
2013-01-20 04:02:00,35.0,32.0,30.36,NW,319,0.0,1.0,90,0.00,,,0.00,,2013-01-20 12:02:00,
2013-01-20 04:12:00,35.0,32.0,30.36,NW,319,0.0,1.0,90,0.00,,,0.00,,2013-01-20 12:12:00,
2013-01-20 04:22:00,35.0,32.0,30.36,NW,319,0.0,1.0,90,0.00,,,0.00,,2013-01-20 12:22:00,
2013-01-20 04:33:00,34.0,31.0,30.35,NW,319,0.0,1.0,90,0.00,,,0.00,,2013-01-20 12:33:00,
2013-01-20 04:43:00,34.0,31.0,30.35,NW,319,0.0,1.0,90,0.00,,,0.00,,2013-01-20 12:43:00,
2013-01-20 04:53:00,34.0,31.0,30.35,NW,319,0.0,1.0,90,0.00,,,0.00,,2013-01-20 12:53:00,
2013-01-20 05:02:00,33.0,30.0,30.35,NW,319,0.0,1.0,89,0.00,,,0.00,,2013-01-20 13:02:00,
2013-01-20 05:12:00,33.0,30.0,30.35,NW,319,0.0,1.0,89,0.00,,,0.00,,2013-01-20 13:12:00,
2013-01-20 05:23:00,33.0,30.0,30.35,NW,319,0.0,1.0,89,0.00,,,0.00,,2013-01-20 13:23:00,
2013-01-20 05:33:00,33.0,30.0,30.34,NW,319,0.0,0.0,90,0.00,,,0.00,,2013-01-20 13:33:00,
2013-01-20 05:43:00,33.0,30.0,30.34,NW,319,0.0,0.0,90,0.00,,,0.00,,2013-01-20 13:43:00,
2013-01-20 05:53:00,33.0,30.0,30.34,NW,319,0.0,0.0,90,0.00,,,0.00,,2013-01-20 13:53:00,
2013-01-20 06:02:00,33.0,30.0,30.35,NW,319,0.0,1.0,90,0.00,,,0.00,,2013-01-20 14:02:00,
2013-01-20 06:12:00,33.0,30.0,30.35,NW,319,0.0,1.0,90,0.00,,,0.00,,2013-01-20 14:12:00,
2013-01-20 06:22:00,33.0,30.0,30.35,NW,319,0.0,1.0,90,0.00,,,0.00,,2013-01-20 14:22:00,
2013-01-20 06:32:00,33.0,30.0,30.35,NW,319,0.0,0.0,90,0.00,,,0.00,,2013-01-20 14:32:00,
2013-01-20 06:43:00,33.0,30.0,30.35,NW,319,0.0,0.0,90,0.00,,,0.00,,2013-01-20 14:43:00,
2013-01-20 06:53:00,33.0,30.0,30.35,NW,319,0.0,0.0,90,0.00,,,0.00,,2013-01-20 14:53:00,
2013-01-20 07:02:00,32.0,29.0,30.34,NW,319,0.0,1.0,90,0.00,,,0.00,,2013-01-20 15:02:00,
2013-01-20 07:12:00,32.0,29.0,30.34,NW,319,0.0,1.0,90,0.00,,,0.00,,2013-01-20 15:12:00,
2013-01-20 07:22:00,32.0,29.0,30.34,NW,319,0.0,0.0,89,0.00,,,0.00,,2013-01-20 15:22:00,
2013-01-20 07:32:00,32.0,29.0,30.34,NW,319,0.0,0.0,89,0.00,,,0.00,,2013-01-20 15:32:00,
2013-01-20 07:43:00,32.0,29.0,30.34,NW,319,0.0,0.0,89,0.00,,,0.00,,2013-01-20 15:43:00,
2013-01-20 07:53:00,32.0,29.0,30.34,NW,319,0.0,0.0,89,0.00,,,0.00,,2013-01-20 15:53:00,
2013-01-20 08:02:00,31.0,28.0,30.35,NW,319,0.0,1.0,89,0.00,,,0.00,,2013-01-20 16:02:00,
2013-01-20 08:12:00,31.0,28.0,30.35,NW,319,0.0,1.0,89,0.00,,,0.00,,2013-01-20 16:12:00,
2013-01-20 08:22:00,31.0,28.0,30.35,NW,319,0.0,1.0,89,0.00,,,0.00,,2013-01-20 16:22:00,
2013-01-20 08:33:00,31.0,28.0,30.34,NW,319,1.0,1.0,89,0.00,,,0.00,,2013-01-20 16:33:00,
2013-01-20 08:43:00,31.0,28.0,30.34,NW,319,1.0,1.0,89,0.00,,,0.00,,2013-01-20 16:43:00,
2013-01-20 08:53:00,31.0,28.0,30.34,NW,319,1.0,1.0,89,0.00,,,0.00,,2013-01-20 16:53:00,
2013-01-20 09:02:00,31.0,28.0,30.35,NW,319,0.0,1.0,90,0.00,,,0.00,,2013-01-20 17:02:00,
2013-01-20 09:12:00,31.0,28.0,30.35,NW,319,0.0,1.0,90,0.00,,,0.00,,2013-01-20 17:12:00,
2013-01-20 09:22:00,31.0,28.0,30.35,NW,319,0.0,1.0,90,0.00,,,0.00,,2013-01-20 17:22:00,
2013-01-20 09:32:00,35.0,32.0,30.35,NW,319,0.0,2.0,88,0.00,,,0.00,,2013-01-20 17:32:00,
2013-01-20 09:43:00,35.0,32.0,30.35,NW,319,0.0,2.0,88,0.00,,,0.00,,2013-01-20 17:43:00,
2013-01-20 09:53:00,35.0,32.0,30.35,NW,319,0.0,2.0,88,0.00,,,0.00,,2013-01-20 17:53:00,
2013-01-20 10:02:00,37.0,33.0,30.35,NW,319,0.0,2.0,84,0.00,,,0.00,,2013-01-20 18:02:00,
2013-01-20 10:12:00,37.0,33.0,30.35,NW,319,0.0,2.0,84,0.00,,,0.00,,2013-01-20 18:12:00,
2013-01-20 10:23:00,37.0,33.0,30.35,NW,319,0.0,2.0,84,0.00,,,0.00,,2013-01-20 18:23:00,
2013-01-20 10:33:00,40.0,35.0,30.36,NW,319,0.0,1.0,81,0.00,,,0.00,,2013-01-20 18:33:00,
2013-01-20 10:43:00,40.0,35.0,30.36,NW,319,0.0,1.0,81,0.00,,,0.00,,2013-01-20 18:43:00,
2013-01-20 10:53:00,40.0,35.0,30.36,NW,319,0.0,1.0,81,0.00,,,0.00,,2013-01-20 18:53:00,
2013-01-20 11:02:00,44.0,38.0,30.35,NW,317,1.0,2.0,80,0.00,,,0.00,,2013-01-20 19:02:00,
2013-01-20 11:33:00,49.0,41.0,30.35,NW,318,1.0,3.0,75,0.00,,,0.00,,2013-01-20 19:33:00,
2013-01-20 11:53:00,50.0,42.0,30.34,NW,318,1.0,2.0,74,0.00,,,0.00,,2013-01-20 19:53:00,
2013-01-20 12:32:00,51.0,42.0,30.32,NW,318,1.0,3.0,72,0.00,,,0.00,,2013-01-20 20:32:00,
2013-01-20 13:03:00,53.0,43.0,30.31,NW,318,1.0,2.0,70,0.00,,,0.00,,2013-01-20 21:03:00,
2013-01-20 13:33:00,53.0,43.0,30.30,NW,318,0.0,1.0,69,0.00,,,0.00,,2013-01-20 21:33:00,
2013-01-20 13:43:00,53.0,43.0,30.30,NW,318,0.0,1.0,69,0.00,,,0.00,,2013-01-20 21:43:00,
2013-01-20 13:53:00,53.0,43.0,30.30,NW,318,0.0,1.0,69,0.00,,,0.00,,2013-01-20 21:53:00,
2013-01-20 14:02:00,52.0,41.0,30.29,NW,318,2.0,3.0,66,0.00,,,0.00,,2013-01-20 22:02:00,
2013-01-20 14:12:00,52.0,41.0,30.29,NW,318,2.0,3.0,66,0.00,,,0.00,,2013-01-20 22:12:00,
2013-01-20 14:22:00,52.0,41.0,30.29,NW,318,2.0,3.0,66,0.00,,,0.00,,2013-01-20 22:22:00,
2013-01-20 14:32:00,53.0,42.0,30.28,NW,318,1.0,2.0,67,0.00,,,0.00,,2013-01-20 22:32:00,
2013-01-20 14:43:00,53.0,42.0,30.28,NW,318,1.0,2.0,67,0.00,,,0.00,,2013-01-20 22:43:00,
2013-01-20 14:53:00,53.0,42.0,30.28,NW,318,1.0,2.0,67,0.00,,,0.00,,2013-01-20 22:53:00,
2013-01-20 15:02:00,53.0,42.0,30.27,NW,318,3.0,3.0,65,0.00,,,0.00,,2013-01-20 23:02:00,
2013-01-20 15:12:00,53.0,42.0,30.27,NW,318,3.0,3.0,65,0.00,,,0.00,,2013-01-20 23:12:00,
2013-01-20 15:23:00,53.0,42.0,30.27,NW,318,3.0,3.0,65,0.00,,,0.00,,2013-01-20 23:23:00,
2013-01-20 15:33:00,53.0,42.0,30.27,NW,318,3.0,3.0,67,0.00,,,0.00,,2013-01-20 23:33:00,
2013-01-20 15:43:00,53.0,42.0,30.27,NW,318,3.0,3.0,67,0.00,,,0.00,,2013-01-20 23:43:00,
2013-01-20 15:53:00,53.0,42.0,30.27,NW,318,3.0,3.0,67,0.00,,,0.00,,2013-01-20 23:53:00,
2013-01-20 16:02:00,53.0,43.0,30.26,NW,318,0.0,3.0,68,0.00,,,0.00,,2013-01-21 00:02:00,
2013-01-20 16:13:00,53.0,43.0,30.26,NW,318,0.0,3.0,68,0.00,,,0.00,,2013-01-21 00:13:00,
2013-01-20 16:22:00,53.0,43.0,30.26,NW,318,0.0,3.0,68,0.00,,,0.00,,2013-01-21 00:22:00,
2013-01-20 16:33:00,52.0,42.0,30.25,NW,318,2.0,4.0,69,0.00,,,0.00,,2013-01-21 00:33:00,
2013-01-20 16:43:00,52.0,42.0,30.25,NW,318,2.0,4.0,69,0.00,,,0.00,,2013-01-21 00:43:00,
2013-01-20 16:53:00,52.0,42.0,30.25,NW,318,2.0,4.0,69,0.00,,,0.00,,2013-01-21 00:53:00,
2013-01-20 17:02:00,51.0,42.0,30.25,NW,318,0.0,1.0,72,0.00,,,0.00,,2013-01-21 01:02:00,
2013-01-20 17:12:00,51.0,42.0,30.25,NW,318,0.0,1.0,72,0.00,,,0.00,,2013-01-21 01:12:00,
2013-01-20 17:22:00,51.0,42.0,30.25,NW,318,0.0,1.0,72,0.00,,,0.00,,2013-01-21 01:22:00,
2013-01-20 17:32:00,49.0,41.0,30.26,NW,318,1.0,3.0,74,0.00,,,0.00,,2013-01-21 01:32:00,
2013-01-20 17:43:00,49.0,41.0,30.26,NW,318,1.0,3.0,74,0.00,,,0.00,,2013-01-21 01:43:00,
2013-01-20 17:53:00,49.0,41.0,30.26,NW,318,1.0,3.0,74,0.00,,,0.00,,2013-01-21 01:53:00,
2013-01-20 18:02:00,47.0,41.0,30.27,NW,318,0.0,1.0,78,0.00,,,0.00,,2013-01-21 02:02:00,
2013-01-20 18:12:00,47.0,41.0,30.27,NW,318,0.0,1.0,78,0.00,,,0.00,,2013-01-21 02:12:00,
2013-01-20 18:22:00,47.0,41.0,30.27,NW,318,0.0,1.0,78,0.00,,,0.00,,2013-01-21 02:22:00,
2013-01-20 18:33:00,45.0,40.0,30.27,NW,318,1.0,3.0,81,0.00,,,0.00,,2013-01-21 02:33:00,
2013-01-20 18:43:00,45.0,40.0,30.27,NW,318,1.0,3.0,81,0.00,,,0.00,,2013-01-21 02:43:00,
2013-01-20 18:53:00,45.0,40.0,30.27,NW,318,1.0,3.0,81,0.00,,,0.00,,2013-01-21 02:53:00,
2013-01-20 19:02:00,44.0,39.0,30.27,NW,318,0.0,1.0,81,0.00,,,0.00,,2013-01-21 03:02:00,
2013-01-20 19:12:00,44.0,39.0,30.27,NW,318,0.0,1.0,81,0.00,,,0.00,,2013-01-21 03:12:00,
2013-01-20 19:23:00,44.0,39.0,30.27,NW,318,0.0,1.0,81,0.00,,,0.00,,2013-01-21 03:23:00,
2013-01-20 19:33:00,42.0,38.0,30.28,NW,318,0.0,0.0,84,0.00,,,0.00,,2013-01-21 03:33:00,
2013-01-20 19:43:00,42.0,38.0,30.28,NW,318,0.0,0.0,84,0.00,,,0.00,,2013-01-21 03:43:00,
2013-01-20 19:53:00,42.0,38.0,30.28,NW,318,0.0,0.0,84,0.00,,,0.00,,2013-01-21 03:53:00,
2013-01-20 20:02:00,41.0,37.0,30.28,NW,318,0.0,0.0,84,0.00,,,0.00,,2013-01-21 04:02:00,
2013-01-20 20:12:00,41.0,37.0,30.28,NW,318,0.0,0.0,84,0.00,,,0.00,,2013-01-21 04:12:00,
2013-01-20 20:22:00,41.0,37.0,30.28,NW,318,0.0,0.0,84,0.00,,,0.00,,2013-01-21 04:22:00,
2013-01-20 20:32:00,40.0,36.0,30.28,NW,318,0.0,1.0,85,0.00,,,0.00,,2013-01-21 04:32:00,
2013-01-20 20:43:00,40.0,36.0,30.28,NW,318,0.0,1.0,85,0.00,,,0.00,,2013-01-21 04:43:00,
2013-01-20 20:53:00,40.0,36.0,30.28,NW,318,0.0,1.0,85,0.00,,,0.00,,2013-01-21 04:53:00,
2013-01-20 21:03:00,39.0,35.0,30.28,NW,319,0.0,0.0,85,0.00,,,0.00,,2013-01-21 05:03:00,
2013-01-20 21:12:00,39.0,35.0,30.28,NW,319,0.0,0.0,85,0.00,,,0.00,,2013-01-21 05:12:00,
2013-01-20 21:22:00,39.0,35.0,30.28,NW,319,0.0,0.0,85,0.00,,,0.00,,2013-01-21 05:22:00,
2013-01-20 21:33:00,38.0,34.0,30.28,NW,320,0.0,1.0,86,0.00,,,0.00,,2013-01-21 05:33:00,
2013-01-20 21:42:00,38.0,34.0,30.28,NW,320,0.0,1.0,86,0.00,,,0.00,,2013-01-21 05:42:00,
2013-01-20 21:53:00,38.0,34.0,30.28,NW,320,0.0,1.0,86,0.00,,,0.00,,2013-01-21 05:53:00,
2013-01-20 22:02:00,37.0,33.0,30.28,NW,320,0.0,0.0,85,0.00,,,0.00,,2013-01-21 06:02:00,
2013-01-20 22:12:00,37.0,33.0,30.28,NW,320,0.0,0.0,85,0.00,,,0.00,,2013-01-21 06:12:00,
2013-01-20 22:23:00,37.0,33.0,30.28,NW,320,0.0,0.0,85,0.00,,,0.00,,2013-01-21 06:23:00,
2013-01-20 22:32:00,36.0,32.0,30.28,NW,320,0.0,0.0,85,0.00,,,0.00,,2013-01-21 06:32:00,
2013-01-20 22:43:00,36.0,32.0,30.28,NW,320,0.0,0.0,85,0.00,,,0.00,,2013-01-21 06:43:00,
2013-01-20 22:53:00,36.0,32.0,30.28,NW,320,0.0,0.0,85,0.00,,,0.00,,2013-01-21 06:53:00,
2013-01-20 23:02:00,35.0,31.0,30.29,NW,320,0.0,0.0,86,0.00,,,0.00,,2013-01-21 07:02:00,
2013-01-20 23:12:00,35.0,31.0,30.29,NW,320,0.0,0.0,86,0.00,,,0.00,,2013-01-21 07:12:00,
2013-01-20 23:22:00,35.0,31.0,30.29,NW,320,0.0,0.0,86,0.00,,,0.00,,2013-01-21 07:22:00,
2013-01-20 23:33:00,35.0,31.0,30.29,NW,320,0.0,0.0,86,0.00,,,0.00,,2013-01-21 07:33:00,
2013-01-20 23:42:00,35.0,31.0,30.29,NW,320,0.0,0.0,86,0.00,,,0.00,,2013-01-21 07:42:00,
2013-01-20 23:53:00,35.0,31.0,30.29,NW,320,0.0,0.0,86,0.00,,,0.00,,2013-01-21 07:53:00,